Regional Weather Roundup
Issued by NWS

Home | Current Version | Previous Version | Graphics & Text | Print | Product List | Glossary Off
Versions: 1 2 3 4 5 6 7 8 9 10 11 12 13 14 15 16 17 18 19 20 21 22 23 24 25 26 27 28 29 30 31 32 33 34 35 36 37 38 39 40 41 42 43 44 45 46 47 48 49 50

000
ASUS45 KCYS 282010
RWRWY

WYOMING REGIONAL WEATHER ROUNDUP
NATIONAL WEATHER SERVICE CHEYENNE WY
100 PM MST WED JAN 28 2015

NOTE:  "FAIR" INDICATES FEW OR NO CLOUDS BELOW 12,000 FEET
WITH NO SIGNIFICANT WEATHER AND/OR OBSTRUCTIONS TO VISIBILITY.

WYZ001-282100-
YELLOWSTONE NATIONAL PARK

CITY           SKY/WX    TMP DP  RH WIND       PRES   REMARKS
LK YELLOWSTONE   N/A     34  29  82 CALM      30.25S
W YELLOWSTONE  NOT AVBL

$$
WYZ002>013-054>058-071-098>099-282100-
NORTHERN WYOMING

CITY           SKY/WX    TMP DP  RH WIND       PRES   REMARKS
JACKSON        MOSUNNY   39  34  81 CALM      30.23F
CODY           CLOUDY    46  37  71 NE7       30.15S
GREYBULL       CLOUDY    40  38  93 S3        30.16R
WORLAND        CLOUDY    37  35  92 CALM      30.15S
SHERIDAN       CLOUDY    50  27  40 NW22      30.11R
BUFFALO        FAIR      46  24  42 NW31G41   30.10R
GILLETTE       PTSUNNY   49  27  42 NW23G31   30.05R
HULETT           N/A    N/A N/A N/A MISG        N/A
NEWCASTLE      FAIR      45  28  53 NW15G25   30.02S

$$
WYZ014>020-022>026-101>103-282100-
CENTRAL WYOMING

CITY           SKY/WX    TMP DP  RH WIND       PRES   REMARKS
BIG PINEY      PTSUNNY   38  30  73 SW3       30.23F
PINEDALE       FAIR      36  30  80 W12       30.21F WCI  27
DUBOIS         FAIR      43  25  49 NW14G20   30.17S
LANDER         PTSUNNY   43  31  62 S3        30.16R
RIVERTON       CLOUDY    43  32  65 E9        30.17R
CASPER         LGT RAIN  39  38  96 SW5       30.14S
DOUGLAS        LGT RAIN  39  38  96 W18       30.12S WCI  30

$$
WYZ021-027>030-104>119-282100-
SOUTHERN WYOMING

CITY           SKY/WX    TMP DP  RH WIND       PRES   REMARKS
EVANSTON       CLOUDY    37  31  78 W13       30.28S WCI  29
KEMMERER       CLOUDY    34  32  93 W7        30.27R WCI  28
FORT BRIDGER   CLOUDY    42  33  72 W20G25    30.30S
ROCK SPRINGS   FAIR      42  30  62 W28       30.22R
DIXON          CLOUDY    43  32  66 S12       30.26F
RAWLINS        CLOUDY    42  30  62 W24G32    30.18S
SARATOGA       FAIR      43  30  61 W23G32    30.20S
LARAMIE        CLOUDY    42  26  53 W24G31    30.12S
CHEYENNE       PTSUNNY   49  27  42 W21G45    30.06F
TORRINGTON     CLOUDY    47  36  65 NW24G33   30.05R
PINE BLUFFS    FAIR      52  30  43 NW36G48   30.04S

$$



USA.gov is the U.S. government's official web portal to all federal, state and local government web resources and services.